Regional Weather Roundup
Issued by NWS

Home | Current Version | Previous Version | Graphics & Text | Print | Product List | Glossary On
Versions: 1 2 3 4 5 6 7 8 9 10 11 12 13 14 15 16 17 18 19 20 21 22 23 24 25 26 27 28 29 30 31 32 33 34 35 36 37 38 39 40 41 42 43 44 45 46 47 48 49 50
000
ASUS43 KOAX 300302
RWRNE

WEATHER ROUNDUP FOR NEBRASKA
NATIONAL WEATHER SERVICE OMAHA NE
1000 PM CDT SAT APR 29 2017

NOTES: SATELLITE DATA IS BEING USED TO AUGMENT CLOUD COVER ABOVE
       12000 FEET.
       "FAIR" INDICATES FEW OR NO CLOUDS BELOW 12,000 FEET WITH NO
       SIGNIFICANT WEATHER AND/OR OBSTRUCTIONS TO VISIBILITY.

  * THESE STATIONS DO NOT REPORT WEATHER SUCH AS RAIN...SNOW OR FOG.

NEZ001>004-019>022-054>056-300400-
NEBRASKA PANHANDLE

CITY           SKY/WX    TMP DP  RH WIND       PRES   REMARKS
SCOTTSBLUFF    CLOUDY    41  31  67 NW6       30.19R
ALLIANCE       PTCLDY    39  25  57 N7        30.15S WCI  34
CHADRON        CLOUDY    43  29  57 E3        30.18S
KIMBALL        CLOUDY    37  26  63 NW8       30.17S WCI  31
SIDNEY         CLOUDY    41  22  46 N15G24    30.15R
$$

NEZ057>060-069>072-079>082-300400-
SOUTHWEST NEBRASKA

CITY           SKY/WX    TMP DP  RH WIND       PRES   REMARKS
NORTH PLATTE   CLOUDY    44  24  45 NE16      30.09R
IMPERIAL       CLOUDY    41  27  57 N8        30.11R
LEXINGTON      CLOUDY    41  31  68 NE16G29   30.05R
MCCOOK         CLOUDY    40  32  73 NE18      30.06R WCI  31
OGALLALA       CLOUDY    45  25  45 NE10      30.12R
$$

NEZ005>010-023>029-035>040-094-300400-
NORTH CENTRAL NEBRASKA

CITY           SKY/WX    TMP DP  RH WIND       PRES   REMARKS
VALENTINE      MOCLDY    48  19  31 NE8       30.17R
AINSWORTH      CLOUDY    45  26  47 NE7       30.17R
BROKEN BOW     CLOUDY    44  25  47 NE17      30.06F
O`NEILL        CLOUDY    45  21  39 NE8       30.14R
ORD            CLOUDY    44  24  45 N14       30.07S
THEDFORD       CLOUDY    45  24  42 NE9       30.14R
$$

NEZ041-046>049-061>064-073>077-083>087-300400-
SOUTH CENTRAL NEBRASKA

CITY           SKY/WX    TMP DP  RH WIND       PRES   REMARKS
GRAND ISLAND   CLOUDY    41  35  79 NE22G33   30.01F
AURORA         DRIZZLE   38  37  96 NE25G31   30.01S WCI  27
HASTINGS       LGT RAIN  39  36  89 NE25G36   29.99F FOG     WCI  28
HEBRON         LGT RAIN  40  39  97 NE20G28   29.93F WCI  31
HOLDREGE       LGT RAIN  37  34  89 N28G37    30.01R WCI  25
KEARNEY *      CLOUDY    37  32  81 N26       30.02F WCI  26
YORK           MIX PCPN  39  39 100 NE29G35   30.00F WCI  28
$$

NEZ011>018-030>034-042>045-300400-
NORTHEAST NEBRASKA

CITY           SKY/WX    TMP DP  RH WIND       PRES   REMARKS
NORFOLK        LGT RAIN  44  29  55 NE18G26   30.09R
ALBION         CLOUDY    45  28  50 NE18G28   30.08S
BLAIR          DRIZZLE   41  38  90 NE17G25   30.03R
FREMONT        LGT RAIN  40  39  95 N15G22    30.06R WCI  32
TEKAMAH        LGT RAIN  41  38  89 NE18      30.07S
WAYNE          CLOUDY    46  29  52 NE15      30.10S
$$

NEZ050>053-065>068-078-088>093-300400-
SOUTHEAST NEBRASKA

CITY           SKY/WX    TMP DP  RH WIND       PRES   REMARKS
LINCOLN        LGT RAIN  41  39  93 NE23G30   30.00S FOG
OMAHA EPPLEY   LGT RAIN  42  37  82 N21       30.03R
BEATRICE       LGT RAIN  41  40  95 NE22      29.96S
FALLS CITY     LGT RAIN  42  41  96 NE13G20   29.93F FOG
NEBRASKA CITY  DRIZZLE   40  40 100 NE21      29.96S WCI  30
$$

NEZ044-045-051>053-067-300400-
OMAHA AREA

CITY           SKY/WX    TMP DP  RH WIND       PRES   REMARKS
OMAHA EPPLEY   LGT RAIN  42  37  82 N21       30.03R
BLAIR          DRIZZLE   41  38  90 NE17G25   30.03R
FREMONT        LGT RAIN  40  39  95 N15G22    30.06R WCI  32
MILLARD        DRIZZLE   42  40  92 N12G18    30.02S
OFFUTT AFB     LGT RAIN  41  38  90 NE14G24   30.00F
WAHOO          DRIZZLE   40  37  89 N23G31    30.03R WCI  30
$$



USA.gov is the U.S. government's official web portal to all federal, state and local government web resources and services.